User: anonymous   Login
Location: Caltech
(34.1382°N, 118.1253°W)
Time: 09:29:02
(UTC-07:00)
Language:

SO-67 - Orbit

View from above orbital plane
View from above orbital plane
View from above satellite
View from above satellite

Ground track
Ground track

The orbit data is extracted from the following two-line orbital elements,

1 35870U 09049F   16181.08349275  .00005144  00000-0  96900-4 0  9992
2 35870  97.1183 195.7869 0001303  76.9344   7.7021 15.48954256378485
Epoch (UTC): 29 June 2016 02:00:13
Eccentricity: 0.0001303
inclination: 97.1183°
perigee height: 419 km
apogee height: 420 km
right ascension of ascending node: 195.7869°
argument of perigee: 76.9344°
revolutions per day: 15.48954256
mean anomaly at epoch: 7.7021°
orbit number at epoch: 37848

The dashed part of the orbit path shows where the satellite is in the earth's shadow,  

DLR